Location: Virginia Beach
(36.8530°N, 75.9780°W)
Time: 15:27:22
(UTC-04:00)

ISS - Visible Passes

Search period start: 21 October 2017 00:00
Search period end: 31 October 2017 00:00
Orbit: 401 x 408 km, 51.6° (Epoch: 22 October)

Date Brightness Start Highest point End Pass type
(mag) Time Alt. Az. Time Alt. Az. Time Alt. Az.
27 Oct -0.8 06:29:46 10° SSE 06:31:45 15° SE 06:33:42 10° E visible
29 Oct -2.5 06:20:03 10° SSW 06:23:07 39° SE 06:26:11 10° ENE visible
30 Oct -1.4 05:29:47 17° SSE 05:30:49 19° SE 05:33:13 10° E visible
